• In Österreich
  • Länderverzeichnis
  • Für 7 Tage
  • Wassertemperatur
  • Satellitenkarten
  • Wetterkarte
  • News
  • Widgets
  • user-avatar
    Anmelden

    Stündliche Wetter Goldene Küste

    Heute, 12 Dezember, Dienstag

    Zeit Temperatur Niederschläge Wind Luftdruck Luftfeuchtigkeit
    00:00 +19°C° 0 mm 4 m/S 759 mmHg 88%
    01:00 +18°C° 0 mm 4 m/S 758 mmHg 90%
    02:00 +18°C° 0 mm 4 m/S 758 mmHg 90%
    03:00 +18°C° 0 mm 4 m/S 758 mmHg 91%
    04:00 +18°C° 0 mm 4 m/S 758 mmHg 92%
    05:00 +20°C° 0,1 mm 5 m/S 758 mmHg 86%
    06:00 +21°C° 0,1 mm 5 m/S 758 mmHg 79%
    07:00 +23°C° 0,1 mm 5 m/S 758 mmHg 73%
    08:00 +25°C° 0 mm 5 m/S 758 mmHg 66%
    09:00 +27°C° 0 mm 6 m/S 758 mmHg 59%
    10:00 +29°C° 0 mm 6 m/S 759 mmHg 53%
    11:00 +29°C° 0 mm 6 m/S 758 mmHg 50%
    12:00 +30°C° 0 mm 6 m/S 758 mmHg 48%
    13:00 +32°C° 0 mm 6 m/S 758 mmHg 45%
    14:00 +30°C° 0 mm 6 m/S 758 mmHg 47%
    15:00 +30°C° 0 mm 6 m/S 758 mmHg 48%
    16:00 +29°C° 0 mm 6 m/S 758 mmHg 53%
    17:00 +27°C° 0 mm 6 m/S 758 mmHg 61%
    18:00 +25°C° 0 mm 5 m/S 758 mmHg 69%
    19:00 +22°C° 0 mm 5 m/S 758 mmHg 77%
    20:00 +22°C° 0 mm 5 m/S 758 mmHg 81%
    21:00 +21°C° 0 mm 4 m/S 758 mmHg 85%
    22:00 +20°C° 0 mm 4 m/S 759 mmHg 89%
    23:00 +20°C° 0 mm 4 m/S 758 mmHg 90%

    Morgen, 13 Dezember, Mittwoch

    Zeit Temperatur Niederschläge Wind Luftdruck Luftfeuchtigkeit
    00:00 +19°C° 0 mm 4 m/S 758 mmHg 91%
    01:00 +19°C° 0 mm 3 m/S 758 mmHg 92%
    02:00 +19°C° 0 mm 3 m/S 758 mmHg 93%
    03:00 +19°C° 0 mm 3 m/S 758 mmHg 94%
    04:00 +19°C° 0 mm 3 m/S 757 mmHg 94%
    05:00 +20°C° 0 mm 3 m/S 758 mmHg 89%
    06:00 +21°C° 0 mm 3 m/S 758 mmHg 84%
    07:00 +22°C° 0 mm 3 m/S 758 mmHg 79%
    08:00 +25°C° 0 mm 3 m/S 758 mmHg 69%
    09:00 +28°C° 0 mm 4 m/S 758 mmHg 58%
    10:00 +30°C° 0 mm 4 m/S 758 mmHg 47%
    11:00 +30°C° 0 mm 4 m/S 757 mmHg 44%
    12:00 +32°C° 0 mm 4 m/S 757 mmHg 42%
    13:00 +33°C° 0 mm 4 m/S 757 mmHg 39%
    14:00 +32°C° 0 mm 5 m/S 757 mmHg 42%
    15:00 +30°C° 0 mm 5 m/S 756 mmHg 45%
    16:00 +30°C° 0 mm 5 m/S 756 mmHg 48%
    17:00 +28°C° 0 mm 4 m/S 756 mmHg 57%
    18:00 +25°C° 0 mm 4 m/S 757 mmHg 67%
    19:00 +22°C° 0 mm 4 m/S 757 mmHg 77%
    20:00 +21°C° 0 mm 3 m/S 757 mmHg 81%
    21:00 +21°C° 0 mm 3 m/S 757 mmHg 85%
    22:00 +20°C° 0 mm 3 m/S 758 mmHg 90%
    23:00 +20°C° 0 mm 2 m/S 757 mmHg 90%

    übermorgen, 14 Dezember, Donnerstag

    Zeit Temperatur Niederschläge Wind Luftdruck Luftfeuchtigkeit
    00:00 +19°C° 0 mm 2 m/S 757 mmHg 91%
    01:00 +20°C° 0 mm 1 m/S 757 mmHg 92%
    02:00 +20°C° 0 mm 1 m/S 756 mmHg 93%
    03:00 +20°C° 0 mm 1 m/S 756 mmHg 93%
    04:00 +20°C° 0 mm 1 m/S 756 mmHg 94%
    05:00 +21°C° 0 mm 1 m/S 756 mmHg 88%
    06:00 +23°C° 0 mm 1 m/S 756 mmHg 82%
    07:00 +24°C° 0 mm 1 m/S 757 mmHg 76%
    08:00 +26°C° 0 mm 1 m/S 756 mmHg 64%
    09:00 +29°C° 0 mm 2 m/S 756 mmHg 53%
    10:00 +31°C° 0 mm 2 m/S 756 mmHg 41%
    11:00 +33°C° 0 mm 3 m/S 756 mmHg 39%
    12:00 +33°C° 0 mm 3 m/S 755 mmHg 37%
    13:00 +34°C° 0 mm 3 m/S 755 mmHg 36%
    14:00 +33°C° 0 mm 3 m/S 754 mmHg 39%
    15:00 +32°C° 0 mm 4 m/S 754 mmHg 43%
    16:00 +30°C° 0 mm 4 m/S 754 mmHg 46%
    17:00 +28°C° 0 mm 4 m/S 754 mmHg 55%
    18:00 +26°C° 0 mm 3 m/S 755 mmHg 64%
    19:00 +24°C° 0 mm 3 m/S 755 mmHg 73%
    20:00 +22°C° 0 mm 3 m/S 756 mmHg 78%
    21:00 +21°C° 0 mm 3 m/S 756 mmHg 83%
    22:00 +20°C° 0 mm 3 m/S 756 mmHg 88%
    23:00 +20°C° 0 mm 2 m/S 756 mmHg 90%

    15 Dezember, Freitag

    Zeit Temperatur Niederschläge Wind Luftdruck Luftfeuchtigkeit
    00:00 +20°C° 0 mm 2 m/S 756 mmHg 91%
    01:00 +20°C° 0 mm 1 m/S 756 mmHg 92%
    02:00 +20°C° 0 mm 1 m/S 756 mmHg 93%
    03:00 +20°C° 0 mm 1 m/S 756 mmHg 94%
    04:00 +20°C° 0 mm 1 m/S 756 mmHg 95%
    05:00 +22°C° 0 mm 1 m/S 756 mmHg 88%
    06:00 +23°C° 0 mm 1 m/S 756 mmHg 82%
    07:00 +25°C° 0 mm 1 m/S 757 mmHg 75%
    08:00 +27°C° 0 mm 1 m/S 757 mmHg 64%
    09:00 +30°C° 0 mm 2 m/S 756 mmHg 53%
    10:00 +32°C° 0 mm 2 m/S 756 mmHg 43%
    11:00 +33°C° 0 mm 3 m/S 756 mmHg 40%
    12:00 +34°C° 0 mm 3 m/S 756 mmHg 38%
    13:00 +35°C° 0 mm 4 m/S 755 mmHg 36%
    14:00 +34°C° 0 mm 4 m/S 755 mmHg 40%
    15:00 +33°C° 0 mm 4 m/S 755 mmHg 44%
    16:00 +32°C° 0 mm 5 m/S 755 mmHg 48%
    17:00 +28°C° 0 mm 4 m/S 756 mmHg 58%
    18:00 +26°C° 0 mm 4 m/S 756 mmHg 68%
    19:00 +23°C° 0 mm 4 m/S 757 mmHg 77%
    20:00 +22°C° 0 mm 4 m/S 757 mmHg 81%
    21:00 +22°C° 0 mm 3 m/S 758 mmHg 85%
    22:00 +21°C° 0 mm 3 m/S 758 mmHg 89%
    23:00 +21°C° 0 mm 3 m/S 758 mmHg 90%

    16 Dezember, Samstag

    Zeit Temperatur Niederschläge Wind Luftdruck Luftfeuchtigkeit
    00:00 +21°C° 0 mm 3 m/S 758 mmHg 90%
    01:00 +21°C° 0 mm 2 m/S 757 mmHg 90%
    02:00 +21°C° 0 mm 2 m/S 757 mmHg 91%
    03:00 +20°C° 0 mm 2 m/S 757 mmHg 92%
    04:00 +20°C° 0 mm 3 m/S 757 mmHg 93%
    05:00 +22°C° 0 mm 3 m/S 758 mmHg 87%
    06:00 +24°C° 0 mm 3 m/S 758 mmHg 81%
    07:00 +25°C° 0 mm 3 m/S 759 mmHg 75%
    08:00 +27°C° 0 mm 3 m/S 759 mmHg 66%
    09:00 +29°C° 0 mm 3 m/S 759 mmHg 57%
    10:00 +32°C° 0 mm 4 m/S 759 mmHg 47%
    11:00 +32°C° 0 mm 4 m/S 758 mmHg 45%
    12:00 +33°C° 0 mm 4 m/S 758 mmHg 42%
    13:00 +33°C° 0 mm 4 m/S 757 mmHg 40%
    14:00 +33°C° 0 mm 4 m/S 757 mmHg 42%
    15:00 +32°C° 0 mm 4 m/S 757 mmHg 45%
    16:00 +30°C° 0 mm 4 m/S 756 mmHg 48%
    17:00 +28°C° 0 mm 4 m/S 757 mmHg 58%
    18:00 +26°C° 0 mm 3 m/S 757 mmHg 67%
    19:00 +24°C° 0 mm 3 m/S 758 mmHg 77%
    20:00 +22°C° 0 mm 3 m/S 758 mmHg 81%
    21:00 +21°C° 0 mm 3 m/S 759 mmHg 86%
    22:00 +21°C° 0 mm 3 m/S 759 mmHg 91%
    23:00 +21°C° 0 mm 2 m/S 758 mmHg 92%

    17 Dezember, Sonntag

    Zeit Temperatur Niederschläge Wind Luftdruck Luftfeuchtigkeit
    00:00 +21°C° 0 mm 2 m/S 758 mmHg 92%
    01:00 +20°C° 0 mm 2 m/S 758 mmHg 93%
    02:00 +20°C° 0 mm 2 m/S 758 mmHg 93%
    03:00 +20°C° 0 mm 2 m/S 757 mmHg 94%
    04:00 +22°C° 0 mm 1 m/S 757 mmHg 94%
    05:00 +23°C° 0 mm 2 m/S 758 mmHg 87%
    06:00 +25°C° 0 mm 2 m/S 758 mmHg 80%
    07:00 +26°C° 0 mm 2 m/S 758 mmHg 73%
    08:00 +28°C° 0 mm 2 m/S 758 mmHg 66%
    09:00 +29°C° 0 mm 3 m/S 758 mmHg 60%
    10:00 +31°C° 0 mm 3 m/S 758 mmHg 53%
    11:00 +33°C° 0 mm 3 m/S 758 mmHg 51%
    12:00 +33°C° 0 mm 4 m/S 757 mmHg 49%
    13:00 +34°C° 0 mm 4 m/S 757 mmHg 47%
    14:00 +33°C° 0 mm 4 m/S 757 mmHg 49%
    15:00 +32°C° 0 mm 4 m/S 757 mmHg 52%
    16:00 +32°C° 0 mm 4 m/S 756 mmHg 54%
    17:00 +29°C° 0 mm 4 m/S 757 mmHg 62%
    18:00 +27°C° 0 mm 4 m/S 757 mmHg 69%
    19:00 +25°C° 0 mm 3 m/S 757 mmHg 77%
    20:00 +24°C° 0 mm 3 m/S 758 mmHg 81%
    21:00 +22°C° 0 mm 3 m/S 758 mmHg 85%
    22:00 +21°C° 0 mm 2 m/S 759 mmHg 89%
    23:00 +21°C° 0 mm 2 m/S 758 mmHg 90%
    Mehr zeigen